Tracking 23611 objects as of 18-Sep-2021
HD Live streaming from Space Station
objects crossing your sky now
Track INSPIRATION-4

SL-3 R/B

Track SL-3 R/B now!
10-day predictions
SL-3 R/B is classified as:


NORAD ID: 13068
Int'l Code: 1982-013B
Perigee: 535.3 km
Apogee: 565.3 km
Inclination: 81.2 °
Period: 95.5 minutes
Semi major axis: 6921 km
RCS: 5.3655 m2 (large)
Launch date: February 19, 1982
Source: Commonwealth of Independent States (former USSR) (CIS)
Launch site: PLESETSK MISSILE AND SPACE COMPLEX (PKMTR)

Note: This is a ROCKET BODY
aabbcc
Your satellite tracking list
Your tracking list is empty




NASA's NSSDC Master Catalog

Two Line Element Set (TLE):
1 13068U 82013B   21261.53012910 -.00000077  00000-0 -65774-5 0  9995
2 13068  81.2018 246.9309 0021641 219.6579 140.3063 15.07718917157383
Source of the keplerian elements: AFSPC